This is the latest recevied weather packets stored in our database for station/object NO9B. If no packets are shown the sender has not sent any weather packets the latest 10 day(s).
| Time | Temp. | Humidity | Pressure | Rain* | Wind** | Luminosity | Snow |
|---|---|---|---|---|---|---|---|
| 1787429744 | 27.22° C | 54% | 1015 hPa | 0 mm | - | 64 W/m² | - |
| 1787429443 | 27.22° C | 54% | 1015.2 hPa | 0 mm | - | 522 W/m² | - |
| 1787429140 | 27.22° C | 56% | 1015.2 hPa | 0 mm | - | 552 W/m² | - |
| 1787428836 | 27.78° C | 57% | 1015.3 hPa | 0 mm | - | 592 W/m² | - |
| 1787428531 | 27.22° C | 58% | 1015.1 hPa | 0 mm | - | 582 W/m² | - |
| 1787428226 | 26.67° C | 61% | 1015.3 hPa | 0 mm | - | 606 W/m² | - |
| 1787427926 | 27.22° C | 56% | 1015.1 hPa | 0 mm | - | 405 W/m² | - |
| 1787427621 | 27.22° C | 60% | 1015.3 hPa | 0 mm | - | 645 W/m² | - |
| 1787427317 | 27.22° C | 59% | 1015.4 hPa | 0 mm | - | 609 W/m² | - |
| 1787427013 | 26.67° C | 61% | 1015.3 hPa | 0 mm | - | 637 W/m² | - |
| 1787426708 | 27.22° C | 59% | 1015.2 hPa | 0 mm | - | 62 W/m² | - |
| 1787426404 | 26.67° C | 60% | 1015.1 hPa | 0 mm | - | 648 W/m² | - |
| 1787426100 | 27.22° C | 60% | 1015.1 hPa | 0 mm | - | 638 W/m² | - |
| 1787425796 | 27.78° C | 58% | 1015.2 hPa | 0 mm | - | 664 W/m² | - |
| 1787425492 | 27.22° C | 60% | 1015.1 hPa | 0 mm | - | 646 W/m² | - |
| 1787425188 | 26.67° C | 61% | 1015.1 hPa | 0 mm | - | 659 W/m² | - |
| 1787424888 | 26.67° C | 62% | 1015.4 hPa | 0 mm | - | 647 W/m² | - |
| 1787424586 | 26.67° C | 63% | 1015.3 hPa | 0 mm | - | 284 W/m² | - |
| 1787424282 | 26.67° C | 63% | 1015.2 hPa | 0 mm | - | 112 W/m² | - |
| 1787423977 | 26.67° C | 63% | 1015.4 hPa | 0 mm | - | 122 W/m² | - |
| 1787423674 | 26.67° C | 60% | 1015.4 hPa | 0 mm | - | 665 W/m² | - |
| 1787423370 | 27.22° C | 62% | 1015.2 hPa | 0 mm | - | 126 W/m² | - |
| 1787423067 | 27.22° C | 62% | 1015.4 hPa | 0 mm | - | 703 W/m² | - |
| 1787422766 | 27.22° C | 61% | 1015.5 hPa | 0 mm | - | 663 W/m² | - |
| 1787422464 | 26.67° C | 65% | 1015.2 hPa | 0 mm | - | 673 W/m² | - |
* Rain latest hour (hover to see other rain measurements)
** Current wind speed in m/s (hover to see current wind gust speed)